Lid_Strength_Index
14 14 15 15 16 16 16 17 17 17 17 17 17 17 17 16 16 17 17 16 16 15 15 15 15 15 15 14 14 14 14 15 17 16 14 13 14 14 14 14 14 15 14
15 16 17 16 17 17 18 17 17 17 17 17 17 17 17 17 17 17 16 15 15 16 15 15 15 15 15 14 14 15 15 15 16 17 15 14 14 14 14 15 15 14 15
16 17 17 18 18 18 18 18 17 17 17 17 17 17 17 17 16 15 15 15 15 15 15 15 15 15 15 15 15 15 15 15 15 16 16 14 14 14 16 15 15 15 15
16 17 17 18 18 18 18 18 18 18 17 17 17 17 17 16 16 16 15 15 15 15 15 15 15 15 15 16 16 16 15 15 15 15 15 16 16 15 16 17 18 17 17
17 17 18 18 18 18 18 18 17 17 18 17 17 17 16 15 16 15 15 15 15 15 15 15 15 15 16 16 16 16 16 15 15 16 17 17 17 17 18 18 19 18 18
17 18 18 18 18 17 18 18 18 17 17 16 16 15 15 15 15 15 15 15 15 15 15 15 15 15 15 15 15 14 14 15 16 16 17 18 18 18 18 19 19 21 22
18 18 18 18 18 18 18 17 18 17 16 15 15 15 14 14 13 13 14 14 15 15 15 15 16 15 15 15 15 13 14 14 14 16 17 18 18 18 18 19 20 20 21
18 18 18 18 18 18 18 18 17 16 16 16 15 15 15 14 13 13 14 14 14 14 15 15 16 16 15 15 15 15 15 15 15 15 16 16 17 16 17 18 18 19 19
18 18 18 18 18 17 17 17 16 16 16 16 16 15 15 15 14 14 14 14 15 15 15 15 15 15 14 14 15 16 16 16 15 14 14 14 14 15 15 17 20 21 22
18 18 17 17 16 16 16 16 16 15 16 15 16 15 15 15 15 15 14 14 15 15 15 15 15 15 14 13 15 17 18 17 16 17 18 17 17 17 15 16 18 20 20
17 16 16 16 16 16 16 16 15 16 16 16 16 16 16 16 16 15 15 15 16 16 15 15 15 14 14 14 14 17 16 15 18 19 19 18 17 17 17 16 15 16 18
16 16 16 16 16 15 15 15 15 15 16 16 16 16 16 16 16 16 15 15 15 15 15 14 14 15 15 15 16 15 15 18 19 20 19 19 18 18 17 16 16 15 14
16 16 16 16 15 15 15 16 16 16 15 16 16 16 17 17 16 16 16 15 15 15 15 15 16 16 16 16 17 16 18 19 20 21 20 19 18 17 16 16 15 15 15
16 16 16 16 16 16 15 15 15 15 16 16 17 17 17 17 17 15 15 14 14 15 16 16 16 16 16 16 18 18 19 19 20 21 20 18 17 17 17 16 17 17 17
16 17 16 16 16 16 16 16 16 17 15 16 16 16 17 17 17 15 15 15 16 17 19 18 18 18 19 19 19 19 19 19 20 19 19 19 18 18 18 17 17 18 19
16 16 15 16 16 16 17 17 15 15 15 15 16 16 16 16 16 15 15 16 16 16 19 20 20 20 20 20 20 21 20 20 20 20 20 19 19 19 19 19 19 19 19
15 16 16 16 17 17 17 17 19 17 15 16 16 16 17 17 16 16 16 16 17 18 21 20 21 21 21 21 21 21 21 20 22 21 20 20 20 20 20 20 20 19 20
16 17 16 16 17 17 17 17 17 18 19 19 18 19 18 17 17 17 18 18 20 20 21 22 22 22 22 22 21 21 21 21 21 20 20 21 21 21 22 22 21 21 21
17 17 17 17 17 18 18 18 18 19 19 20 20 20 21 19 19 19 19 22 23 23 23 22 22 22 22 22 22 22 22 22 22 22 23 23 23 22 22 22 21 22 21
19 19 19 18 18 18 18 19 20 20 20 21 21 22 21 22 21 22 22 23 23 23 23 23 23 23 23 22 22 23 22 22 22 21 22 22 22 22 23 23 22 23 22
19 18 20 18 18 19 19 20 20 21 21 22 22 22 20 23 23 23 23 23 23 24 24 23 23 23 22 22 23 23 22 22 21 22 22 22 23 24 23 23 23 23 23
18 18 19 20 20 20 21 21 21 22 23 23 23 23 21 25 23 23 23 23 23 23 24 24 24 23 23 23 23 23 22 22 22 22 22 22 23 23 23 23 23 22 23
19 20 20 21 22 24 22 22 22 23 23 24 24 24 24 23 24 24 24 24 24 24 24 24 24 24 23 23 23 23 23 23 22 21 22 23 23 24 24 24 23 23 24
20 20 21 22 22 22 23 23 24 27 27 25 24 24 24 24 24 25 25 25 24 24 24 24 24 25 24 24 22 22 21 22 22 23 25 25 25 25 25 25 24 24 23
21 21 22 23 23 24 25 24 24 25 25 24 24 24 24 24 25 25 24 24 24 25 24 24 23 24 24 24 24 23 22 20 21 21 23 25 26 26 26 26 26 24 23
22 23 24 24 24 24 24 24 24 25 26 25 25 25 25 25 25 25 24 24 24 24 24 22 23 23 23 22 22 22 22 20 22 23 24 25 26 26 25 25 25 24 22